Theta_e
307 306 305 305 304 304 304 305 306 306 306 306 306 306 305 305 304 304 303 303 302 302
307 305 304 304 305 304 303 303 305 305 304 304 305 305 305 304 303 303 303 302 302 301
306 305 305 304 303 303 303 303 303 303 302 302 302 303 303 303 303 302 302 301 301 301
306 305 304 303 303 303 303 302 301 301 300 300 300 300 301 301 301 300 300 301 300 300
305 304 303 302 302 302 301 301 300 300 299 298 298 299 298 298 299 299 299 299 299 298
303 303 303 302 302 301 300 300 300 298 298 298 298 297 297 298 297 298 298 298 298 298
302 301 302 302 301 300 300 299 299 298 298 297 297 296 296 296 296 296 296 297 297 297
300 300 300 300 299 299 299 298 298 297 297 297 296 295 296 296 295 295 295 296 296 296
297 297 298 298 298 298 298 298 298 297 297 296 296 296 295 295 295 295 294 293 294 295
294 294 294 295 295 295 296 297 297 297 296 296 296 296 295 295 295 295 295 295 294 294
291 291 292 292 292 293 293 293 293 292 293 294 294 295 295 295 294 294 294 294 294 294
290 290 290 290 291 292 292 292 291 292 292 291 292 294 293 293 293 292 292 293 293 293
289 289 288 289 289 291 291 290 291 291 292 292 291 293 293 294 292 292 291 292 293 294
288 288 288 288 288 288 288 288 288 288 289 289 290 291 293 293 292 290 290 290 290 292
Wind_Speed
8 6 6 6 5 4 4 4 4 4 4 4 5 5 5 4 5 5 5 7 5 4
9 9 8 8 7 5 5 4 5 5 5 5 5 6 5 5 6 6 6 6 6 6
10 10 8 7 9 8 7 7 6 6 6 5 6 6 6 6 6 7 6 5 7 7
9 9 8 9 9 9 8 8 7 7 6 6 7 7 7 8 7 8 8 8 8 9
9 8 9 9 9 8 9 8 8 7 8 8 8 8 8 9 8 9 9 9 9 10
7 8 9 9 8 8 8 8 8 8 8 8 8 9 9 9 10 10 10 10 10 10
7 6 7 7 7 8 7 8 8 8 9 9 9 9 10 10 10 11 10 10 11 11
9 8 7 6 6 6 6 7 7 8 8 9 8 8 9 10 11 11 12 12 12 12
11 11 10 9 8 7 6 6 6 7 8 9 7 9 11 12 11 12 12 13 13 12
10 10 10 9 9 8 8 8 7 8 8 9 9 9 13 14 11 12 13 13 12 11
9 8 8 8 8 8 7 8 7 7 8 9 9 12 14 15 11 10 11 11 13 12
8 8 8 8 8 8 7 8 7 7 9 10 10 11 12 11 9 9 8 7 8 9
9 10 10 10 10 9 9 9 8 10 10 12 12 12 13 13 9 10 8 9 11 14
10 10 10 11 10 10 11 11 11 12 12 13 12 13 15 16 12 9 8 9 9 9
Wind_Direction
216 222 227 237 242 243 241 236 226 233 240 249 249 251 249 253 253 251 248 255 254 263
225 222 223 225 232 238 236 240 237 237 245 254 256 253 255 256 254 249 250 251 247 248
231 229 229 232 234 234 239 235 238 240 240 249 251 248 244 249 249 252 252 252 251 247
242 232 228 234 242 241 241 238 240 243 248 248 251 251 251 252 254 250 255 248 249 251
248 236 236 239 245 248 247 246 252 251 253 257 256 258 257 261 251 250 252 253 251 254
271 254 253 253 254 251 253 256 254 255 257 263 263 263 260 260 262 259 256 254 252 251
353 321 299 294 285 277 269 265 261 259 262 262 264 262 263 262 263 262 262 260 254 253
27 24 15 1 341 323 305 292 286 279 269 264 262 261 262 260 261 263 263 258 253 250
29 29 27 24 18 10 353 334 311 293 286 283 277 274 260 262 268 263 260 261 260 254
15 15 11 4 0 357 348 338 332 322 315 301 295 298 290 283 274 273 267 265 265 266
6 1 357 352 350 344 340 337 330 321 315 306 302 300 296 291 284 280 272 270 270 268
345 338 334 332 328 321 315 313 309 306 306 306 305 299 295 296 291 281 277 277 281 280
325 321 318 316 311 306 299 297 298 293 288 286 287 290 288 279 288 285 287 290 284 267
307 305 300 301 301 301 300 295 294 295 292 291 287 289 283 279 281 281 267 268 278 276